TimeCDT,TemperatureF,Dew PointF,Humidity,Sea Level PressureIn,VisibilityMPH,Wind Direction,Wind SpeedMPH,Gust SpeedMPH,PrecipitationIn,Events,Conditions,WindDirDegrees,DateUTC
12:15 AM,53.6,53.6,100,29.97,1.8,Calm,Calm,-,N/A,,Overcast,0,2013-10-30 05:15:00
12:35 AM,53.6,53.6,100,29.97,3.0,Calm,Calm,-,N/A,,Overcast,0,2013-10-30 05:35:00
12:55 AM,53.6,53.6,100,29.97,6.0,Calm,Calm,-,N/A,,Overcast,0,2013-10-30 05:55:00
1:15 AM,53.6,53.6,100,29.96,6.0,Calm,Calm,-,N/A,,Overcast,0,2013-10-30 06:15:00
1:35 AM,53.6,53.6,100,29.96,3.0,Calm,Calm,-,N/A,,Overcast,0,2013-10-30 06:35:00
1:55 AM,53.6,53.6,100,29.96,4.0,Calm,Calm,-,N/A,,Overcast,0,2013-10-30 06:55:00
2:15 AM,53.6,53.6,100,29.95,4.0,SE,4.6,-,N/A,,Overcast,140,2013-10-30 07:15:00
2:35 AM,53.6,53.6,100,29.95,1.8,Calm,Calm,-,N/A,,Overcast,0,2013-10-30 07:35:00
2:55 AM,53.6,53.6,100,29.95,1.8,Calm,Calm,-,N/A,,Overcast,0,2013-10-30 07:55:00
3:15 AM,53.6,53.6,100,29.94,2.0,Variable,3.5,-,N/A,,Overcast,0,2013-10-30 08:15:00
3:35 AM,53.6,53.6,100,29.94,2.0,SSE,3.5,-,N/A,,Overcast,150,2013-10-30 08:35:00
3:55 AM,53.6,53.6,100,29.94,1.8,SSE,3.5,-,N/A,,Overcast,160,2013-10-30 08:55:00
4:15 AM,53.6,53.6,100,29.93,1.5,Calm,Calm,-,N/A,,Overcast,0,2013-10-30 09:15:00
4:35 AM,53.6,53.6,100,29.92,1.8,SSE,3.5,-,N/A,,Overcast,150,2013-10-30 09:35:00
4:55 AM,53.6,53.6,100,29.92,1.8,SE,4.6,-,N/A,,Overcast,130,2013-10-30 09:55:00
5:15 AM,53.6,53.6,100,29.92,2.0,SSE,4.6,-,N/A,,Overcast,150,2013-10-30 10:15:00
5:35 AM,53.6,53.6,100,29.91,3.0,SE,4.6,-,N/A,,Overcast,130,2013-10-30 10:35:00
5:55 AM,53.6,53.6,100,29.91,1.5,SE,4.6,-,N/A,,Overcast,140,2013-10-30 10:55:00
6:15 AM,53.6,53.6,100,29.92,1.8,South,4.6,-,N/A,,Overcast,190,2013-10-30 11:15:00
6:35 AM,53.6,53.6,100,29.90,1.0,South,5.8,-,N/A,,Overcast,170,2013-10-30 11:35:00
6:55 AM,53.6,53.6,100,29.89,0.5,South,5.8,-,N/A,,Overcast,190,2013-10-30 11:55:00
7:15 AM,55.4,53.6,94,29.91,0.2,SSW,5.8,-,N/A,Fog,Fog,200,2013-10-30 12:15:00
7:35 AM,55.4,53.6,94,29.88,0.2,East,4.6,-,N/A,Fog,Fog,100,2013-10-30 12:35:00
7:55 AM,55.4,55.4,100,29.89,0.8,SSE,5.8,-,N/A,,Overcast,150,2013-10-30 12:55:00
8:15 AM,55.4,55.4,100,29.87,2.0,NE,4.6,-,N/A,,Overcast,40,2013-10-30 13:15:00
8:35 AM,55.4,55.4,100,29.86,2.0,North,5.8,-,N/A,Rain,Light Rain,10,2013-10-30 13:35:00
8:55 AM,55.4,53.6,94,29.88,2.0,North,15.0,20.7,N/A,Rain,Light Rain,10,2013-10-30 13:55:00
9:15 AM,55.4,53.6,94,29.87,1.2,North,11.5,-,N/A,Rain,Heavy Rain,10,2013-10-30 14:15:00
9:35 AM,55.4,53.6,94,29.89,3.0,North,6.9,15.0,N/A,Rain,Rain,10,2013-10-30 14:35:00
9:55 AM,55.4,55.4,100,29.89,4.0,North,9.2,-,0.23,Rain,Rain,10,2013-10-30 14:55:00
10:15 AM,55.4,55.4,100,29.98,3.0,SSW,10.4,-,N/A,,Light Drizzle,200,2013-10-30 15:15:00
10:35 AM,55.4,53.6,94,29.93,2.0,Calm,Calm,-,N/A,Rain,Light Rain,0,2013-10-30 15:35:00
10:55 AM,55.4,55.4,100,29.89,3.0,ENE,5.8,13.8,0.35,Rain,Rain,70,2013-10-30 15:55:00
11:15 AM,55.4,55.4,100,29.86,7.0,ENE,12.7,-,N/A,Rain,Rain,70,2013-10-30 16:15:00
11:35 AM,57.2,55.4,94,29.87,10.0,East,13.8,21.9,N/A,,Mostly Cloudy,100,2013-10-30 16:35:00
11:55 AM,57.2,55.4,94,29.86,10.0,East,8.1,16.1,0.05,,Mostly Cloudy,80,2013-10-30 16:55:00
12:15 PM,59.0,55.4,88,29.86,10.0,East,8.1,15.0,N/A,,Mostly Cloudy,90,2013-10-30 17:15:00
12:35 PM,59.0,57.2,94,29.85,10.0,ENE,6.9,-,N/A,,Mostly Cloudy,70,2013-10-30 17:35:00
12:55 PM,60.8,57.2,88,29.83,9.0,East,9.2,-,0.01,,Overcast,90,2013-10-30 17:55:00
1:15 PM,62.6,57.2,82,29.81,7.0,ENE,9.2,-,N/A,,Mostly Cloudy,70,2013-10-30 18:15:00
1:35 PM,62.6,57.2,82,29.80,10.0,ENE,6.9,-,N/A,,Mostly Cloudy,70,2013-10-30 18:35:00
1:55 PM,64.4,57.2,77,29.79,10.0,ESE,5.8,-,N/A,,Overcast,110,2013-10-30 18:55:00
2:15 PM,66.2,57.2,73,29.77,10.0,East,8.1,-,N/A,,Scattered Clouds,90,2013-10-30 19:15:00
2:35 PM,64.4,57.2,77,29.76,10.0,East,10.4,-,N/A,,Mostly Cloudy,100,2013-10-30 19:35:00
2:55 PM,64.4,57.2,77,29.76,10.0,ESE,10.4,-,N/A,,Overcast,120,2013-10-30 19:55:00
3:15 PM,64.4,59.0,83,29.76,10.0,SE,9.2,17.3,N/A,,Overcast,130,2013-10-30 20:15:00
3:35 PM,62.6,57.2,82,29.76,10.0,SE,11.5,-,N/A,,Overcast,130,2013-10-30 20:35:00
3:55 PM,62.6,57.2,82,29.76,10.0,Variable,5.8,16.1,N/A,,Overcast,0,2013-10-30 20:55:00
4:15 PM,62.6,57.2,82,29.75,10.0,SSE,8.1,15.0,N/A,,Overcast,150,2013-10-30 21:15:00
4:35 PM,62.6,57.2,82,29.75,10.0,SSE,9.2,15.0,N/A,,Overcast,150,2013-10-30 21:35:00
4:55 PM,60.8,57.2,88,29.74,10.0,SE,6.9,-,N/A,,Overcast,140,2013-10-30 21:55:00
5:15 PM,60.8,57.2,88,29.74,10.0,Variable,5.8,-,N/A,,Overcast,0,2013-10-30 22:15:00
5:35 PM,60.8,57.2,88,29.74,10.0,South,4.6,11.5,N/A,,Overcast,170,2013-10-30 22:35:00
5:55 PM,60.8,57.2,88,29.74,8.0,South,6.9,-,N/A,,Overcast,190,2013-10-30 22:55:00
6:15 PM,59.0,57.2,94,29.73,5.0,Calm,Calm,-,N/A,,Overcast,0,2013-10-30 23:15:00
7:55 PM,50.0,48.2,94,29.74,6.0,NNW,11.5,-,N/A,,Overcast,330,2013-10-31 00:55:00
8:15 PM,48.2,48.2,100,29.74,4.0,NNW,10.4,-,N/A,,Light Drizzle,330,2013-10-31 01:15:00
8:35 PM,48.2,48.2,100,29.74,3.0,NNW,10.4,17.3,N/A,,Light Drizzle,330,2013-10-31 01:35:00
8:55 PM,48.2,48.2,100,29.73,3.0,NNW,8.1,-,N/A,,Light Drizzle,330,2013-10-31 01:55:00
9:15 PM,48.2,48.2,100,29.73,2.5,NNW,9.2,-,N/A,,Light Drizzle,340,2013-10-31 02:15:00
9:35 PM,48.2,48.2,100,29.72,2.5,NNW,12.7,-,N/A,,Light Drizzle,330,2013-10-31 02:35:00
9:55 PM,48.2,46.4,93,29.73,4.0,NW,13.8,-,N/A,,Overcast,320,2013-10-31 02:55:00
10:15 PM,48.2,46.4,93,29.73,3.0,NW,10.4,17.3,N/A,,Overcast,320,2013-10-31 03:15:00
10:35 PM,48.2,46.4,93,29.74,4.0,NW,10.4,17.3,N/A,,Overcast,320,2013-10-31 03:35:00
10:55 PM,46.4,46.4,100,29.75,5.0,NW,10.4,-,N/A,,Overcast,310,2013-10-31 03:55:00
11:15 PM,46.4,44.6,93,29.74,5.0,NW,13.8,-,N/A,,Overcast,320,2013-10-31 04:15:00
11:35 PM,44.6,42.8,93,29.74,8.0,NW,8.1,15.0,N/A,,Overcast,320,2013-10-31 04:35:00
11:55 PM,44.6,42.8,93,29.73,6.0,NW,15.0,-,N/A,,Overcast,320,2013-10-31 04:55:00